[TLELIST] Archives

 

[list_settings.list_name] Current TLEs

September 26th 2009 PDT

HST 1 20580U 90037B 09267.52973047 +.00000311 +00000-0 +11008-4 0 04528 2 20580 028.4692 173.9205 0003253 256.6927 103.3442 15.00832163864795 ISS (ZARYA) 1 25544U 98067A 09268.81095679 .00014515 00000-0 10211-3 0 6744 2 25544 051.6376 150.2386 0008950 127.4669 276.3001 15.74374153621808 CXO 1 25867U 99040B 09266.95833333 -.00000051 +00000-0 +10000-3 0 03748 2 25867 065.8798 065.4721 7705739 275.4425 355.7834 00.37806946005389 ____________________________________________________________________ These 2-Line ...Continue Reading

[list_settings.list_name] Current TLEs

September 25th 2009 PDT

HST 1 20580U 90037B 09264.20478514 +.00000313 +00000-0 +11154-4 0 04512 2 20580 028.4698 195.6356 0003465 221.7899 138.2394 15.00831186864297 ISS (ZARYA) 1 25544U 98067A 09266.84340728 +.00011653 +00000-0 +83093-4 0 06629 2 25544 051.6391 160.3470 0009216 122.3268 282.5449 15.74306025621499 CXO 1 25867U 99040B 09266.95833333 -.00000051 +00000-0 +10000-3 0 03748 2 25867 065.8798 065.4721 7705739 275.4425 355.7834 00.37806946005389 ____________________________________________________________________ These 2-Line ...Continue Reading

[list_settings.list_name] Current TLEs

September 24th 2009 PDT

HST 1 20580U 90037B 09264.20478514 +.00000313 +00000-0 +11154-4 0 04512 2 20580 028.4698 195.6356 0003465 221.7899 138.2394 15.00831186864297 ISS (ZARYA) 1 25544U 98067A 09266.28108029 .00010761 00000-0 77135-4 0 6600 2 25544 051.6387 163.2371 0009217 120.0967 335.6322 15.74287722621401 CXO 1 25867U 99040B 09266.95833333 -.00000051 +00000-0 +10000-3 0 03748 2 25867 065.8798 065.4721 7705739 275.4425 355.7834 00.37806946005389 ____________________________________________________________________ These 2-Line ...Continue Reading

[list_settings.list_name] Current TLEs

September 23rd 2009 PDT

HST 1 20580U 90037B 09264.20478514 +.00000313 +00000-0 +11154-4 0 04512 2 20580 028.4698 195.6356 0003465 221.7899 138.2394 15.00831186864297 ISS (ZARYA) 1 25544U 98067A 09266.15847543 .00010626 00000-0 76233-4 0 6593 2 25544 051.6385 163.8665 0009184 119.4930 000.9110 15.74284333621385 CXO 1 25867U 99040B 09264.33333333 -.00000012 +00000-0 +10000-3 0 03739 2 25867 065.8691 065.5497 7698074 275.4604 358.4309 00.37805102005373 ____________________________________________________________________ These 2-Line ...Continue Reading

[list_settings.list_name] Current TLEs

September 22nd 2009 PDT

HST 1 20580U 90037B 09261.14583680 +.00000344 +00000-0 +13565-4 0 04492 2 20580 028.4698 215.5945 0003466 189.2795 170.7757 15.00830497863834 ISS (ZARYA) 1 25544U 98067A 09263.93228819 +.00010849 +00000-0 +77898-4 0 06466 2 25544 051.6381 175.3014 0009258 111.0306 344.3223 15.74235863621030 CXO 1 25867U 99040B 09264.33333333 -.00000012 +00000-0 +10000-3 0 03739 2 25867 065.8691 065.5497 7698074 275.4604 358.4309 00.37805102005373 ____________________________________________________________________ These 2-Line ...Continue Reading

[list_settings.list_name] Current TLEs

September 21st 2009 PDT

HST 1 20580U 90037B 09261.14583680 +.00000344 +00000-0 +13565-4 0 04492 2 20580 028.4698 215.5945 0003466 189.2795 170.7757 15.00830497863834 ISS (ZARYA) 1 25544U 98067A 09262.91454817 +.00010797 +00000-0 +77624-4 0 06416 2 25544 051.6384 180.5293 0009242 107.3648 336.3562 15.74212717620871 CXO 1 25867U 99040B 09261.70833333 +.00000101 +00000-0 +10000-3 0 03729 2 25867 065.8518 065.6078 7691873 275.5004 001.0162 00.37806419005361 ____________________________________________________________________ These 2-Line ...Continue Reading

[list_settings.list_name] Current TLEs

September 20th 2009 PDT

HST 1 20580U 90037B 09261.14583680 +.00000344 +00000-0 +13565-4 0 04492 2 20580 028.4698 215.5945 0003466 189.2795 170.7757 15.00830497863834 ISS (ZARYA) 1 25544U 98067A 09261.89198260 +.00009605 +00000-0 +69633-4 0 06359 2 25544 051.6379 185.7809 0009184 103.9907 300.8084 15.74184956620711 CXO 1 25867U 99040B 09261.70833333 +.00000101 +00000-0 +10000-3 0 03729 2 25867 065.8518 065.6078 7691873 275.5004 001.0162 00.37806419005361 ____________________________________________________________________ These 2-Line ...Continue Reading

[list_settings.list_name] Current TLEs

September 19th 2009 PDT

HST 1 20580U 90037B 09260.14835346 +.00000324 +00000-0 +12053-4 0 04488 2 20580 028.4700 222.1051 0003488 179.1872 180.8744 15.00830012863682 ISS (ZARYA) 1 25544U 98067A 09261.50040509 .00008697 00000-0 63499-4 0 6331 2 25544 051.6378 187.7933 0009360 102.5110 241.6810 15.74172080620643 CXO 1 25867U 99040B 09261.70833333 +.00000101 +00000-0 +10000-3 0 03729 2 25867 065.8518 065.6078 7691873 275.5004 001.0162 00.37806419005361 ____________________________________________________________________ These 2-Line ...Continue Reading

[list_settings.list_name] Current TLEs

September 18th 2009 PDT

HST 1 20580U 90037B 09259.08437116 +.00000307 +00000-0 +10743-4 0 04476 2 20580 028.4702 229.0485 0003477 167.4835 192.5878 15.00829594863522 ISS (ZARYA) 1 25544U 98067A 09259.87340920 +.00007169 +00000-0 +53204-4 0 06222 2 25544 051.6371 196.1499 0009356 097.8592 019.9809 15.74137060620397 CXO 1 25867U 99040B 09259.04166667 +.00000111 +00000-0 +10000-3 0 03712 2 25867 065.8354 065.7455 7687181 275.5020 357.9297 00.37807903005354 ____________________________________________________________________ These 2-Line ...Continue Reading

[list_settings.list_name] Current TLEs

September 17th 2009 PDT

HST 1 20580U 90037B 09257.35539919 +.00000305 +00000-0 +10556-4 0 04467 2 20580 028.4704 240.3303 0003420 147.3255 212.7607 15.00829069863263 ISS (ZARYA) 1 25544U 98067A 09259.99572006 .00007320 00000-0 54227-4 0 6233 2 25544 051.6369 195.5207 0009332 097.5646 353.8664 15.74139546620418 CXO 1 25867U 99040B 09259.04166667 +.00000111 +00000-0 +10000-3 0 03712 2 25867 065.8354 065.7455 7687181 275.5020 357.9297 00.37807903005354 ____________________________________________________________________ These 2-Line ...Continue Reading
  • This mailing list is a public mailing list - anyone may join or leave, at any time.
  • This mailing list is announce-only.

International Space Station (ISS) / Hubble Space Telescope (HST) / Chandra X-Ray Observatory Orbital Data via EMAIL

Privacy Policy:

Private list